Retour au catalogue

CZ-4B DEB

ActifLEO
NORAD 40531·DEBRIS·🇨🇳 China

Lancé Oct 25, 2013 depuis Jiuquan Satellite Launch Center

Loading…

Prochains Passages (prochaines 24 heures)

TLE

FraisSource: Space-Track

Époque: Sep 13, 2026, 04:12 UTC

1 40531U 13057D   26256.17529307  .00001936  00000-0  33706-3 0  9995
2 40531  74.9656  75.6511 0179366  45.0153 316.5394 14.58573471604643

Suivez CZ-4B DEB en temps réel avec AllMySat

Download on the App Store